| time (UTC) | temp C | wind direction | speed KPH | gust KPH | rain 1hr cm | rain 24hr cm | rain mn cm | humidity % | barometer mb |
| 20260503045817 | 2 | 288 | 0.0 | 0.0 | 0.00 | 0.00 | 0.00 | 85 | 1016.5 |
| 20260503044314 | 2 | 288 | 0.0 | 0.0 | 0.00 | 0.00 | 0.00 | 87 | 1016.2 |
| 20260503042809 | 2 | 288 | 0.0 | 0.0 | 0.00 | 0.00 | 0.00 | 85 | 1016.3 |
| 20260503041306 | 2 | 288 | 0.0 | 0.0 | 0.00 | 0.00 | 0.00 | 85 | 1016.4 |
| 20260503035803 | 2 | 288 | 0.0 | 0.0 | 0.00 | 0.00 | 0.00 | 84 | 1016.4 |
| 20260503034300 | 3 | 288 | 0.0 | 0.0 | 0.00 | 0.00 | 0.00 | 85 | 1016.2 |
| 20260503032758 | 3 | 288 | 0.0 | 0.0 | 0.00 | 0.00 | 0.00 | 85 | 1016.2 |
| 20260503031257 | 3 | 288 | 0.0 | 0.0 | 0.00 | 0.00 | 0.00 | 83 | 1016.4 |
| 20260503025757 | 3 | 288 | 0.0 | 0.0 | 0.00 | 0.00 | 0.00 | 77 | 1016.3 |
| 20260503024255 | 4 | 288 | 0.0 | 0.0 | 0.00 | 0.00 | 0.00 | 74 | 1016.5 |
| 20260503022750 | 4 | 288 | 0.0 | 0.0 | 0.00 | 0.00 | 0.00 | 74 | 1016.8 |
| 20260503021249 | 5 | 288 | 0.0 | 0.0 | 0.00 | 0.00 | 0.00 | 73 | 1016.7 |
| 20260503015747 | 5 | 288 | 0.0 | 0.0 | 0.00 | 0.00 | 0.00 | 73 | 1016.5 |
| 20260503014243 | 5 | 288 | 0.0 | 0.0 | 0.00 | 0.00 | 0.00 | 73 | 1016.3 |
| 20260503012741 | 5 | 288 | 0.0 | 0.0 | 0.00 | 0.00 | 0.00 | 68 | 1016.4 |
| 20260503011238 | 5 | 288 | 0.0 | 0.0 | 0.00 | 0.00 | 0.00 | 67 | 1016.4 |
| 20260503005734 | 5 | 288 | 0.0 | 0.0 | 0.00 | 0.00 | 0.00 | 64 | 1016.3 |
| 20260503004231 | 6 | 288 | 0.0 | 0.0 | 0.00 | 0.00 | 0.00 | 63 | 1016.4 |
| 20260503002728 | 6 | 288 | 0.0 | 0.0 | 0.00 | 0.00 | 0.00 | 59 | 1016.4 |
| 20260503001223 | 7 | 311 | 0.0 | 0.0 | 0.00 | 0.00 | 0.00 | 54 | 1016.1 |
| 20260502235721 | 7 | 296 | 0.0 | 1.6 | 0.00 | 0.00 | 0.00 | 50 | 1016.2 |
| 20260502234218 | 8 | 296 | 1.6 | 1.6 | 0.00 | 0.00 | 0.00 | 50 | 1016.1 |
| 20260502232718 | 8 | 209 | 1.6 | 1.6 | 0.00 | 0.00 | 0.00 | 50 | 1015.9 |
| 20260502231216 | 8 | 81 | 0.0 | 0.0 | 0.00 | 0.00 | 0.00 | 48 | 1016.2 |
| 20260502225714 | 8 | 199 | 1.6 | 3.2 | 0.00 | 0.00 | 0.00 | 46 | 1016.2 |
| 20260502224210 | 8 | 286 | 0.0 | 0.0 | 0.00 | 0.00 | 0.00 | 50 | 1016.3 |
| 20260502222709 | 8 | 348 | 0.0 | 1.6 | 0.00 | 0.00 | 0.00 | 51 | 1016.3 |
| 20260502221205 | 8 | 321 | 4.8 | 4.8 | 0.00 | 0.00 | 0.00 | 47 | 1016.2 |
| 20260502215700 | 8 | 311 | 0.0 | 3.2 | 0.00 | 0.00 | 0.00 | 48 | 1016.3 |
| 20260502214157 | 8 | 218 | 0.0 | 1.6 | 0.00 | 0.00 | 0.00 | 51 | 1016.3 |
| 20260502212656 | 8 | 292 | 1.6 | 3.2 | 0.00 | 0.00 | 0.00 | 48 | 1016.1 |
| 20260502211153 | 9 | 256 | 0.0 | 3.2 | 0.00 | 0.00 | 0.00 | 51 | 1016.1 |
| 20260502205650 | 8 | 286 | 3.2 | 4.8 | 0.00 | 0.00 | 0.00 | 52 | 1016.1 |
| 20260502204147 | 9 | 72 | 0.0 | 0.0 | 0.00 | 0.00 | 0.00 | 50 | 1016.3 |
| 20260502202642 | 9 | 303 | 3.2 | 3.2 | 0.00 | 0.00 | 0.00 | 51 | 1016.3 |
| 20260502201140 | 9 | 306 | 1.6 | 3.2 | 0.00 | 0.00 | 0.00 | 52 | 1016.3 |
| 20260502195637 | 8 | 308 | 0.0 | 3.2 | 0.00 | 0.00 | 0.00 | 50 | 1016.5 |
| 20260502194132 | 8 | 100 | 0.0 | 4.8 | 0.00 | 0.00 | 0.00 | 50 | 1016.7 |
| 20260502192633 | 9 | 282 | 3.2 | 4.8 | 0.00 | 0.00 | 0.00 | 48 | 1016.9 |
| 20260502191131 | 9 | 303 | 3.2 | 4.8 | 0.00 | 0.00 | 0.00 | 49 | 1016.7 |
| 20260502185626 | 8 | 297 | 3.2 | 4.8 | 0.00 | 0.00 | 0.00 | 50 | 1017.0 |
| 20260502184127 | 8 | 278 | 1.6 | 1.6 | 0.00 | 0.00 | 0.00 | 49 | 1017.0 |
| 20260502182627 | 9 | 249 | 3.2 | 4.8 | 0.00 | 0.00 | 0.00 | 48 | 1017.1 |
| 20260502181124 | 9 | 297 | 0.0 | 3.2 | 0.00 | 0.00 | 0.00 | 48 | 1017.1 |